SPACEMOBILE-003

Last updated on Sun Oct 13 2024 00:02:03 GMT+0000 (Coordinated Universal Time)

1 61045U 24163A 24286.20730536 .00006125 00000+0 31833-3 0 9994 2 61045 52.9747 245.4167 0013717 52.0185 308.2045 15.17313741 4538
UTC large
Height (km)
Speed (km/s)
/
Latitude / Longitude
Inclination (degrees)
Orbital Period (minutes)
Azimuth
Elevation
Range (km)
Doppler Factor

Next 0 passes for location: London (51.5072 / 0.1276)

Sorry there are no passes over London.